Time,TemperatureF,DewpointF,PressureIn,WindDirection,WindDirectionDegrees,WindSpeedMPH,WindSpeedGustMPH,Humidity,HourlyPrecipIn,Conditions,Clouds,dailyrainin,SoftwareType,DateUTC
2013-04-15 00:00:00,24.1,16.4,29.90,NNW,338,6.3,7.4,72,0.00,,,0.00,WUHU216HW,2013-04-15 06:00:00,
2013-04-15 00:05:00,24.3,16.6,29.90,North,0,4.7,7.4,72,0.00,,,0.00,WUHU216HW,2013-04-15 06:05:00,
2013-04-15 00:10:00,24.3,16.6,29.90,NNW,338,6.3,6.9,72,0.00,,,0.00,WUHU216HW,2013-04-15 06:10:00,
2013-04-15 00:15:00,24.5,16.8,29.90,North,0,4.7,7.2,72,0.00,,,0.00,WUHU216HW,2013-04-15 06:15:00,
2013-04-15 00:20:00,24.5,16.8,29.90,NNE,23,8.5,8.5,72,0.00,,,0.00,WUHU216HW,2013-04-15 06:20:00,
2013-04-15 00:25:00,24.5,16.8,29.90,NNE,23,8.3,9.2,72,0.00,,,0.00,WUHU216HW,2013-04-15 06:25:00,
2013-04-15 00:30:00,24.5,16.8,29.90,North,0,6.7,9.2,72,0.00,,,0.00,WUHU216HW,2013-04-15 06:30:00,
2013-04-15 00:35:00,24.5,16.8,29.90,North,0,4.0,7.6,72,0.00,,,0.00,WUHU216HW,2013-04-15 06:35:00,
2013-04-15 00:40:00,24.7,16.8,29.90,NNW,338,6.9,7.8,72,0.00,,,0.00,WUHU216HW,2013-04-15 06:40:00,
2013-04-15 00:45:00,24.7,16.8,29.90,NNW,338,4.7,9.8,72,0.00,,,0.00,WUHU216HW,2013-04-15 06:45:00,
2013-04-15 00:50:00,24.7,16.6,29.90,NNW,338,8.1,9.8,71,0.00,,,0.00,WUHU216HW,2013-04-15 06:50:00,
2013-04-15 00:55:00,24.7,16.6,29.90,North,0,11.6,11.6,71,0.00,,,0.00,WUHU216HW,2013-04-15 06:55:00,
2013-04-15 01:00:00,24.5,16.8,29.90,NNW,338,4.7,11.6,72,0.00,,,0.00,WUHU216HW,2013-04-15 07:00:00,
2013-04-15 01:05:00,24.5,16.8,29.90,NNW,338,7.8,8.1,72,0.00,,,0.00,WUHU216HW,2013-04-15 07:05:00,
2013-04-15 01:06:00,24.5,16.8,29.90,NNW,338,7.8,8.1,72,0.00,,,0.00,WUHU216HW,2013-04-15 07:06:00,
2013-04-15 01:12:00,24.5,16.8,29.90,North,0,11.9,11.9,72,0.00,,,0.00,WUHU216HW,2013-04-15 07:12:00,
2013-04-15 01:18:00,24.3,16.8,29.90,NNW,338,6.3,11.9,73,0.00,,,0.00,WUHU216HW,2013-04-15 07:18:00,
2013-04-15 01:24:00,24.1,16.7,29.90,NNW,338,9.2,9.2,73,0.00,,,0.00,WUHU216HW,2013-04-15 07:24:00,
2013-04-15 01:30:00,24.1,17.0,29.90,NW,315,6.0,9.2,74,0.00,,,0.00,WUHU216HW,2013-04-15 07:30:00,
2013-04-15 01:41:00,23.9,16.8,29.90,NW,315,5.6,9.4,74,0.00,,,0.00,WUHU216HW,2013-04-15 07:41:00,
2013-04-15 01:46:00,23.8,17.0,29.90,NNW,338,7.8,9.6,75,0.00,,,0.00,WUHU216HW,2013-04-15 07:46:00,
2013-04-15 01:48:00,23.8,17.0,29.90,North,0,8.7,9.6,75,0.00,,,0.00,WUHU216HW,2013-04-15 07:48:00,
2013-04-15 01:50:00,23.6,16.8,29.90,North,0,7.4,8.7,75,0.00,,,0.00,WUHU216HW,2013-04-15 07:50:00,
2013-04-15 01:55:00,23.6,16.8,29.90,North,0,10.7,11.2,75,0.00,,,0.00,WUHU216HW,2013-04-15 07:55:00,
2013-04-15 02:00:00,23.4,16.7,29.90,NNW,338,6.7,11.2,75,0.00,,,0.00,WUHU216HW,2013-04-15 08:00:00,
2013-04-15 02:05:00,23.4,16.7,29.90,NNW,338,12.1,12.1,75,0.00,,,0.00,WUHU216HW,2013-04-15 08:05:00,
2013-04-15 02:10:00,23.2,16.5,29.90,North,0,7.6,12.1,75,0.00,,,0.00,WUHU216HW,2013-04-15 08:10:00,
2013-04-15 02:15:00,23.0,16.6,29.90,NNW,338,5.4,8.3,76,0.00,,,0.00,WUHU216HW,2013-04-15 08:15:00,
2013-04-15 02:20:00,22.9,16.8,29.90,NNW,338,5.4,7.4,77,0.00,,,0.00,WUHU216HW,2013-04-15 08:20:00,
2013-04-15 02:25:00,22.9,16.8,29.90,North,0,6.3,8.5,77,0.00,,,0.00,WUHU216HW,2013-04-15 08:25:00,
2013-04-15 02:31:00,22.7,16.6,29.90,North,0,8.5,8.9,77,0.00,,,0.00,WUHU216HW,2013-04-15 08:31:00,
2013-04-15 02:35:00,22.7,16.6,29.90,NNW,338,8.5,8.9,77,0.00,,,0.00,WUHU216HW,2013-04-15 08:35:00,
2013-04-15 02:40:00,22.7,16.6,29.90,North,0,5.8,8.5,77,0.00,,,0.00,WUHU216HW,2013-04-15 08:40:00,
2013-04-15 02:45:00,22.7,16.6,29.90,NNW,338,6.3,9.6,77,0.00,,,0.00,WUHU216HW,2013-04-15 08:45:00,
2013-04-15 02:50:00,22.7,16.6,29.90,North,0,4.3,9.6,77,0.00,,,0.00,WUHU216HW,2013-04-15 08:50:00,
2013-04-15 02:55:00,22.7,16.6,29.90,North,0,4.5,8.7,77,0.00,,,0.00,WUHU216HW,2013-04-15 08:55:00,
2013-04-15 03:00:00,22.7,16.6,29.90,NNW,338,5.6,8.5,77,0.00,,,0.00,WUHU216HW,2013-04-15 09:00:00,
2013-04-15 03:05:00,22.7,16.6,29.89,North,0,6.0,8.5,77,0.00,,,0.00,WUHU216HW,2013-04-15 09:05:00,
2013-04-15 03:10:00,22.7,16.6,29.89,North,0,4.7,7.4,77,0.00,,,0.00,WUHU216HW,2013-04-15 09:10:00,
2013-04-15 03:15:00,22.7,16.6,29.89,North,0,4.7,8.3,77,0.00,,,0.00,WUHU216HW,2013-04-15 09:15:00,
2013-04-15 03:20:00,22.7,16.6,29.90,NNW,338,6.9,8.3,77,0.00,,,0.00,WUHU216HW,2013-04-15 09:20:00,
2013-04-15 03:25:00,22.7,16.6,29.90,NNW,338,5.8,7.6,77,0.00,,,0.00,WUHU216HW,2013-04-15 09:25:00,
2013-04-15 03:30:00,22.7,16.6,29.89,North,0,5.1,6.5,77,0.00,,,0.00,WUHU216HW,2013-04-15 09:30:00,
2013-04-15 03:35:00,22.7,16.6,29.89,North,0,5.8,7.6,77,0.00,,,0.00,WUHU216HW,2013-04-15 09:35:00,
2013-04-15 03:40:00,22.7,16.6,29.90,North,0,6.5,8.5,77,0.00,,,0.00,WUHU216HW,2013-04-15 09:40:00,
2013-04-15 03:45:00,22.7,16.6,29.90,NNW,338,5.8,8.5,77,0.00,,,0.00,WUHU216HW,2013-04-15 09:45:00,
2013-04-15 03:50:00,22.7,16.6,29.90,NW,315,3.8,9.2,77,0.00,,,0.00,WUHU216HW,2013-04-15 09:50:00,
2013-04-15 03:55:00,22.5,16.4,29.90,North,0,9.2,9.2,77,0.00,,,0.00,WUHU216HW,2013-04-15 09:55:00,
2013-04-15 04:00:00,22.5,16.4,29.90,NNW,338,3.8,9.2,77,0.00,,,0.00,WUHU216HW,2013-04-15 10:00:00,
2013-04-15 04:05:00,22.5,16.4,29.90,NNW,338,8.1,8.7,77,0.00,,,0.00,WUHU216HW,2013-04-15 10:05:00,
2013-04-15 04:10:00,22.5,16.4,29.90,NNW,338,6.3,8.5,77,0.00,,,0.00,WUHU216HW,2013-04-15 10:10:00,
2013-04-15 04:15:00,22.5,16.4,29.89,NNW,338,6.9,8.1,77,0.00,,,0.00,WUHU216HW,2013-04-15 10:15:00,
2013-04-15 04:20:00,22.5,16.4,29.90,NNW,338,6.3,8.7,77,0.00,,,0.00,WUHU216HW,2013-04-15 10:20:00,
2013-04-15 04:25:00,22.5,16.4,29.90,NNW,338,4.7,8.7,77,0.00,,,0.00,WUHU216HW,2013-04-15 10:25:00,
2013-04-15 04:30:00,22.5,16.4,29.90,North,0,6.9,7.8,77,0.00,,,0.00,WUHU216HW,2013-04-15 10:30:00,
2013-04-15 04:35:00,22.5,16.4,29.90,NW,315,6.3,8.5,77,0.00,,,0.00,WUHU216HW,2013-04-15 10:35:00,
2013-04-15 04:40:00,22.5,16.4,29.90,NNW,338,4.5,8.5,77,0.00,,,0.00,WUHU216HW,2013-04-15 10:40:00,
2013-04-15 04:45:00,22.5,16.4,29.90,NW,315,7.8,8.3,77,0.00,,,0.00,WUHU216HW,2013-04-15 10:45:00,
2013-04-15 04:50:00,22.5,16.4,29.90,NNW,338,7.6,7.8,77,0.00,,,0.00,WUHU216HW,2013-04-15 10:50:00,
2013-04-15 04:55:00,22.5,16.4,29.90,NNW,338,5.4,7.8,77,0.00,,,0.00,WUHU216HW,2013-04-15 10:55:00,
2013-04-15 05:00:00,22.5,16.4,29.90,North,0,5.8,7.4,77,0.00,,,0.00,WUHU216HW,2013-04-15 11:00:00,
2013-04-15 05:05:00,22.5,16.4,29.91,North,0,5.8,7.2,77,0.00,,,0.00,WUHU216HW,2013-04-15 11:05:00,
2013-04-15 05:10:00,22.5,16.4,29.91,NNW,338,4.5,7.6,77,0.00,,,0.00,WUHU216HW,2013-04-15 11:10:00,
2013-04-15 05:15:00,22.5,16.4,29.91,NNW,338,5.8,7.6,77,0.00,,,0.00,WUHU216HW,2013-04-15 11:15:00,
2013-04-15 05:20:00,22.7,16.6,29.91,NNW,338,4.7,7.6,77,0.00,,,0.00,WUHU216HW,2013-04-15 11:20:00,
2013-04-15 05:25:00,22.7,16.6,29.91,NNW,338,6.3,6.3,77,0.00,,,0.00,WUHU216HW,2013-04-15 11:25:00,
2013-04-15 05:30:00,22.7,16.2,29.91,North,0,7.6,7.6,76,0.00,,,0.00,WUHU216HW,2013-04-15 11:30:00,
2013-04-15 05:35:00,22.7,16.2,29.91,North,0,4.9,7.6,76,0.00,,,0.00,WUHU216HW,2013-04-15 11:35:00,
2013-04-15 05:40:00,22.7,16.6,29.91,North,0,6.0,7.4,77,0.00,,,0.00,WUHU216HW,2013-04-15 11:40:00,
2013-04-15 05:45:00,22.7,16.2,29.91,NNW,338,4.7,7.6,76,0.00,,,0.00,WUHU216HW,2013-04-15 11:45:00,
2013-04-15 05:50:00,22.7,16.2,29.91,North,0,5.8,7.6,76,0.00,,,0.00,WUHU216HW,2013-04-15 11:50:00,
2013-04-15 05:55:00,22.7,15.9,29.91,North,0,7.4,7.4,75,0.00,,,0.00,WUHU216HW,2013-04-15 11:55:00,
2013-04-15 06:00:00,22.7,15.9,29.91,NNW,338,6.0,7.4,75,0.00,,,0.00,WUHU216HW,2013-04-15 12:00:00,
2013-04-15 06:05:00,22.7,15.9,29.91,North,0,5.4,6.3,75,0.00,,,0.00,WUHU216HW,2013-04-15 12:05:00,
2013-04-15 06:10:00,22.7,15.9,29.91,NNW,338,7.6,7.6,75,0.00,,,0.00,WUHU216HW,2013-04-15 12:10:00,
2013-04-15 06:15:00,22.7,15.9,29.92,North,0,8.7,8.7,75,0.00,,,0.00,WUHU216HW,2013-04-15 12:15:00,
2013-04-15 06:20:00,22.7,16.2,29.92,North,0,6.5,8.7,76,0.00,,,0.00,WUHU216HW,2013-04-15 12:20:00,
2013-04-15 06:25:00,22.7,16.2,29.92,North,0,4.7,8.1,76,0.00,,,0.00,WUHU216HW,2013-04-15 12:25:00,
2013-04-15 06:30:00,22.7,16.6,29.92,NW,315,4.7,8.1,77,0.00,,,0.00,WUHU216HW,2013-04-15 12:30:00,
2013-04-15 06:35:00,22.7,16.2,29.92,North,0,4.0,5.8,76,0.00,,,0.00,WUHU216HW,2013-04-15 12:35:00,
2013-04-15 06:40:00,22.7,16.2,29.92,North,0,5.4,7.4,76,0.00,,,0.00,WUHU216HW,2013-04-15 12:40:00,
2013-04-15 06:45:00,22.7,16.6,29.92,NNW,338,3.8,7.4,77,0.00,,,0.00,WUHU216HW,2013-04-15 12:45:00,
2013-04-15 06:50:00,22.7,16.6,29.92,NNW,338,4.9,8.1,77,0.00,,,0.00,WUHU216HW,2013-04-15 12:50:00,
2013-04-15 06:55:00,22.9,16.8,29.92,North,0,5.4,8.1,77,0.00,,,0.00,WUHU216HW,2013-04-15 12:55:00,
2013-04-15 07:01:00,22.9,16.8,29.93,North,0,5.4,8.7,77,0.00,,,0.00,WUHU216HW,2013-04-15 13:01:00,
2013-04-15 07:06:00,22.9,16.4,29.93,NNW,338,6.5,8.7,76,0.00,,,0.00,WUHU216HW,2013-04-15 13:06:00,
2013-04-15 07:11:00,22.9,16.8,29.93,NNW,338,4.7,8.5,77,0.00,,,0.00,WUHU216HW,2013-04-15 13:11:00,
2013-04-15 07:16:00,23.0,16.9,29.93,North,0,6.7,8.1,77,0.00,,,0.00,WUHU216HW,2013-04-15 13:16:00,
2013-04-15 07:21:00,23.0,16.9,29.93,NNW,338,5.8,8.1,77,0.00,,,0.00,WUHU216HW,2013-04-15 13:21:00,
2013-04-15 07:27:00,23.0,16.9,29.93,North,0,4.9,7.6,77,0.00,,,0.00,WUHU216HW,2013-04-15 13:27:00,
2013-04-15 07:31:00,23.0,17.2,29.93,North,0,7.6,8.5,78,0.00,,,0.00,WUHU216HW,2013-04-15 13:31:00,
2013-04-15 07:36:00,23.0,17.2,29.93,NNW,338,3.6,8.9,78,0.00,,,0.00,WUHU216HW,2013-04-15 13:36:00,
2013-04-15 07:41:00,23.2,17.4,29.93,North,0,3.4,8.9,78,0.00,,,0.00,WUHU216HW,2013-04-15 13:41:00,
2013-04-15 07:47:00,23.2,17.4,29.93,North,0,7.2,7.2,78,0.00,,,0.00,WUHU216HW,2013-04-15 13:47:00,
2013-04-15 07:52:00,23.4,17.3,29.93,NNW,338,5.8,7.2,77,0.00,,,0.00,WUHU216HW,2013-04-15 13:52:00,
2013-04-15 07:57:00,23.6,17.5,29.93,NNW,338,6.3,9.2,77,0.00,,,0.00,WUHU216HW,2013-04-15 13:57:00,
2013-04-15 08:02:00,23.6,17.5,29.94,NNW,338,7.2,9.2,77,0.00,,,0.00,WUHU216HW,2013-04-15 14:02:00,
2013-04-15 08:07:00,23.8,17.3,29.94,NW,315,5.4,9.8,76,0.00,,,0.00,WUHU216HW,2013-04-15 14:07:00,
2013-04-15 08:12:00,23.9,17.5,29.94,North,0,7.4,9.8,76,0.00,,,0.00,WUHU216HW,2013-04-15 14:12:00,
2013-04-15 08:17:00,24.1,17.7,29.94,NNW,338,5.4,8.3,76,0.00,,,0.00,WUHU216HW,2013-04-15 14:17:00,
2013-04-15 08:23:00,24.1,17.3,29.94,WNW,293,6.3,8.3,75,0.00,,,0.00,WUHU216HW,2013-04-15 14:23:00,
2013-04-15 08:28:00,24.3,17.5,29.94,NNW,338,5.4,7.6,75,0.00,,,0.00,WUHU216HW,2013-04-15 14:28:00,
2013-04-15 08:33:00,24.3,16.8,29.94,NNW,338,6.3,7.6,73,0.00,,,0.00,WUHU216HW,2013-04-15 14:33:00,
2013-04-15 08:38:00,24.5,17.6,29.94,NNW,338,9.8,9.8,75,0.00,,,0.00,WUHU216HW,2013-04-15 14:38:00,
2013-04-15 08:43:00,24.8,17.0,29.94,NNW,338,5.4,9.8,72,0.00,,,0.00,WUHU216HW,2013-04-15 14:43:00,
2013-04-15 08:48:00,25.2,17.4,29.94,NW,315,9.4,9.4,72,0.00,,,0.00,WUHU216HW,2013-04-15 14:48:00,
2013-04-15 08:53:00,25.4,17.3,29.94,NW,315,11.4,11.4,71,0.00,,,0.00,WUHU216HW,2013-04-15 14:53:00,
2013-04-15 08:58:00,25.9,17.5,29.94,NNW,338,6.9,12.1,70,0.00,,,0.00,WUHU216HW,2013-04-15 14:58:00,
2013-04-15 09:03:00,26.1,17.6,29.94,NNW,338,9.2,12.1,70,0.00,,,0.00,WUHU216HW,2013-04-15 15:03:00,
2013-04-15 09:08:00,26.3,16.7,29.94,NW,315,9.8,10.3,67,0.00,,,0.00,WUHU216HW,2013-04-15 15:08:00,
2013-04-15 09:13:00,26.5,16.6,29.94,NNW,338,6.3,9.8,66,0.00,,,0.00,WUHU216HW,2013-04-15 15:13:00,
2013-04-15 09:18:00,26.6,16.4,29.94,North,0,5.4,9.8,65,0.00,,,0.00,WUHU216HW,2013-04-15 15:18:00,
2013-04-15 09:23:00,26.8,16.6,29.95,NW,315,6.5,8.1,65,0.00,,,0.00,WUHU216HW,2013-04-15 15:23:00,
2013-04-15 09:28:00,27.4,17.1,29.94,NNW,338,6.3,8.1,65,0.00,,,0.00,WUHU216HW,2013-04-15 15:28:00,
2013-04-15 09:33:00,27.7,16.7,29.94,North,0,7.4,7.4,63,0.00,,,0.00,WUHU216HW,2013-04-15 15:33:00,
2013-04-15 09:38:00,27.7,16.4,29.94,North,0,6.5,9.4,62,0.00,,,0.00,WUHU216HW,2013-04-15 15:38:00,
2013-04-15 09:43:00,28.1,16.7,29.94,NNE,23,7.6,9.4,62,0.00,,,0.00,WUHU216HW,2013-04-15 15:43:00,
2013-04-15 09:48:00,28.1,16.0,29.94,NNW,338,8.3,8.5,60,0.00,,,0.00,WUHU216HW,2013-04-15 15:48:00,
2013-04-15 09:53:00,28.3,16.2,29.94,NNW,338,6.3,8.5,60,0.00,,,0.00,WUHU216HW,2013-04-15 15:53:00,
2013-04-15 09:58:00,28.8,16.8,29.94,NW,315,7.6,10.3,60,0.00,,,0.00,WUHU216HW,2013-04-15 15:58:00,
2013-04-15 10:03:00,28.8,15.5,29.94,NW,315,7.2,10.3,57,0.00,,,0.00,WUHU216HW,2013-04-15 16:03:00,
2013-04-15 10:08:00,28.8,15.5,29.94,NW,315,8.1,8.1,57,0.00,,,0.00,WUHU216HW,2013-04-15 16:08:00,
2013-04-15 10:13:00,28.4,15.1,29.94,NNW,338,5.1,9.8,57,0.00,,,0.00,WUHU216HW,2013-04-15 16:13:00,
2013-04-15 10:18:00,28.4,15.1,29.94,WNW,293,5.6,10.5,57,0.00,,,0.00,WUHU216HW,2013-04-15 16:18:00,
2013-04-15 10:23:00,29.0,15.2,29.94,NW,315,7.8,10.5,56,0.00,,,0.00,WUHU216HW,2013-04-15 16:23:00,
2013-04-15 10:29:00,29.5,16.1,29.94,NW,315,8.5,10.1,57,0.00,,,0.00,WUHU216HW,2013-04-15 16:29:00,
2013-04-15 10:34:00,29.3,14.7,29.94,NE,45,8.7,9.8,54,0.00,,,0.00,WUHU216HW,2013-04-15 16:34:00,
2013-04-15 10:39:00,29.2,14.9,29.94,NNW,338,5.1,9.8,55,0.00,,,0.00,WUHU216HW,2013-04-15 16:39:00,
2013-04-15 10:44:00,29.5,15.7,29.94,NW,315,4.7,7.2,56,0.00,,,0.00,WUHU216HW,2013-04-15 16:44:00,
2013-04-15 10:49:00,30.1,15.4,29.94,NW,315,8.9,8.9,54,0.00,,,0.00,WUHU216HW,2013-04-15 16:49:00,
2013-04-15 10:54:00,30.4,15.3,29.94,NW,315,4.0,8.9,53,0.00,,,0.00,WUHU216HW,2013-04-15 16:54:00,
2013-04-15 10:59:00,30.6,15.5,29.94,WNW,293,10.7,10.7,53,0.00,,,0.00,WUHU216HW,2013-04-15 16:59:00,
2013-04-15 11:04:00,30.6,15.0,29.94,NW,315,6.3,10.7,52,0.00,,,0.00,WUHU216HW,2013-04-15 17:04:00,
2013-04-15 11:09:00,30.4,15.3,29.94,North,0,5.4,8.7,53,0.00,,,0.00,WUHU216HW,2013-04-15 17:09:00,
2013-04-15 11:14:00,30.8,15.2,29.94,NNW,338,6.9,8.9,52,0.00,,,0.00,WUHU216HW,2013-04-15 17:14:00,
2013-04-15 11:19:00,30.8,15.2,29.94,North,0,6.9,12.1,52,0.00,,,0.00,WUHU216HW,2013-04-15 17:19:00,
2013-04-15 11:21:00,30.8,15.2,29.94,NW,315,8.7,12.1,52,0.00,,,0.00,WUHU216HW,2013-04-15 17:21:00,
2013-04-15 11:25:00,31.3,16.1,29.94,NNW,338,10.5,12.1,53,0.00,,,0.00,WUHU216HW,2013-04-15 17:25:00,
2013-04-15 11:30:00,31.1,15.5,29.94,North,0,10.1,10.5,52,0.00,,,0.00,WUHU216HW,2013-04-15 17:30:00,
2013-04-15 11:35:00,31.0,15.4,29.94,NNW,338,6.5,10.1,52,0.00,,,0.00,WUHU216HW,2013-04-15 17:35:00,
2013-04-15 11:40:00,31.3,15.7,29.94,NNW,338,11.4,11.4,52,0.00,,,0.00,WUHU216HW,2013-04-15 17:40:00,
2013-04-15 11:45:00,31.7,16.0,29.94,NW,315,10.5,11.4,52,0.00,,,0.00,WUHU216HW,2013-04-15 17:45:00,
2013-04-15 11:50:00,32.4,15.9,29.94,NNW,338,8.5,10.5,50,0.00,,,0.00,WUHU216HW,2013-04-15 17:50:00,
2013-04-15 11:55:00,32.2,15.1,29.94,North,0,7.6,10.3,49,0.00,,,0.00,WUHU216HW,2013-04-15 17:55:00,
2013-04-15 12:00:00,32.0,14.9,29.94,NW,315,6.9,10.3,49,0.00,,,0.00,WUHU216HW,2013-04-15 18:00:00,
2013-04-15 12:05:00,32.6,15.5,29.95,NNW,338,6.7,9.2,49,0.00,,,0.00,WUHU216HW,2013-04-15 18:05:00,
2013-04-15 12:10:00,32.6,14.9,29.95,North,0,5.4,9.2,48,0.00,,,0.00,WUHU216HW,2013-04-15 18:10:00,
2013-04-15 12:15:00,32.8,15.1,29.94,North,0,8.9,8.9,48,0.00,,,0.00,WUHU216HW,2013-04-15 18:15:00,
2013-04-15 12:20:00,32.2,14.7,29.94,North,0,7.2,8.9,48,0.00,,,0.00,WUHU216HW,2013-04-15 18:20:00,
2013-04-15 12:25:00,32.4,15.3,29.94,NW,315,6.9,10.1,49,0.00,,,0.00,WUHU216HW,2013-04-15 18:25:00,
2013-04-15 12:29:00,32.4,15.3,29.94,NNW,338,10.3,10.3,49,0.00,,,0.00,WUHU216HW,2013-04-15 18:29:00,
2013-04-15 12:34:00,32.0,16.4,29.94,West,270,8.9,12.1,52,0.00,,,0.00,WUHU216HW,2013-04-15 18:34:00,
2013-04-15 12:39:00,31.9,16.2,29.94,NNW,338,6.7,12.1,52,0.00,,,0.00,WUHU216HW,2013-04-15 18:39:00,
2013-04-15 12:44:00,31.7,16.0,29.94,North,0,7.8,10.1,52,0.00,,,0.00,WUHU216HW,2013-04-15 18:44:00,
2013-04-15 12:49:00,31.7,16.0,29.95,NNW,338,10.5,13.4,52,0.00,,,0.00,WUHU216HW,2013-04-15 18:49:00,
2013-04-15 12:54:00,31.7,16.0,29.94,North,0,7.4,13.4,52,0.00,,,0.00,WUHU216HW,2013-04-15 18:54:00,
2013-04-15 12:59:00,32.2,16.5,29.94,North,0,8.9,9.4,52,0.00,,,0.00,WUHU216HW,2013-04-15 18:59:00,
2013-04-15 13:04:00,32.2,16.5,29.94,NNW,338,11.0,11.0,52,0.00,,,0.00,WUHU216HW,2013-04-15 19:04:00,
2013-04-15 13:09:00,32.6,16.8,29.94,NW,315,11.9,11.9,52,0.00,,,0.00,WUHU216HW,2013-04-15 19:09:00,
2013-04-15 13:14:00,32.8,16.6,29.94,NW,315,7.6,11.9,51,0.00,,,0.00,WUHU216HW,2013-04-15 19:14:00,
2013-04-15 13:19:00,32.8,16.6,29.94,NNW,338,10.5,12.1,51,0.00,,,0.00,WUHU216HW,2013-04-15 19:19:00,
2013-04-15 13:24:00,32.9,16.3,29.94,WNW,293,7.6,12.1,50,0.00,,,0.00,WUHU216HW,2013-04-15 19:24:00,
2013-04-15 13:29:00,33.5,16.3,29.94,NNW,338,11.2,12.1,49,0.00,,,0.00,WUHU216HW,2013-04-15 19:29:00,
2013-04-15 13:34:00,34.0,15.8,29.94,North,0,6.9,11.2,47,0.00,,,0.00,WUHU216HW,2013-04-15 19:34:00,
2013-04-15 13:39:00,33.8,15.1,29.94,NW,315,5.1,9.8,46,0.00,,,0.00,WUHU216HW,2013-04-15 19:39:00,
2013-04-15 13:44:00,33.5,15.3,29.94,North,0,9.2,9.8,47,0.00,,,0.00,WUHU216HW,2013-04-15 19:44:00,
2013-04-15 13:50:00,33.3,17.0,29.94,NNW,338,10.7,13.4,51,0.00,,,0.00,WUHU216HW,2013-04-15 19:50:00,
2013-04-15 13:55:00,33.3,16.1,29.94,NNW,338,6.9,13.4,49,0.00,,,0.00,WUHU216HW,2013-04-15 19:55:00,
2013-04-15 13:57:00,33.5,16.3,29.94,NNW,338,6.9,13.4,49,0.00,,,0.00,WUHU216HW,2013-04-15 19:57:00,
2013-04-15 13:58:00,33.5,15.3,29.94,NNW,338,4.3,10.7,47,0.00,,,0.00,WUHU216HW,2013-04-15 19:58:00,
2013-04-15 14:01:00,33.7,16.9,29.94,NE,45,6.5,9.8,50,0.00,,,0.00,WUHU216HW,2013-04-15 20:01:00,
2013-04-15 14:02:00,33.8,16.6,29.94,NNW,338,10.5,10.5,49,0.00,,,0.00,WUHU216HW,2013-04-15 20:02:00,
2013-04-15 14:07:00,33.7,15.4,29.94,NW,315,2.2,10.5,47,0.00,,,0.00,WUHU216HW,2013-04-15 20:07:00,
2013-04-15 14:12:00,33.8,15.6,29.94,NNW,338,6.9,8.9,47,0.00,,,0.00,WUHU216HW,2013-04-15 20:12:00,
2013-04-15 14:17:00,34.6,15.8,29.94,North,0,7.6,10.3,46,0.00,,,0.00,WUHU216HW,2013-04-15 20:17:00,
2013-04-15 14:22:00,34.0,15.8,29.94,North,0,9.2,11.6,47,0.00,,,0.00,WUHU216HW,2013-04-15 20:22:00,
2013-04-15 14:27:00,33.5,16.3,29.94,North,0,11.4,11.6,49,0.00,,,0.00,WUHU216HW,2013-04-15 20:27:00,
2013-04-15 14:32:00,33.7,15.9,29.94,North,0,10.3,11.4,48,0.00,,,0.00,WUHU216HW,2013-04-15 20:32:00,
2013-04-15 14:37:00,34.0,16.3,29.95,North,0,8.5,10.7,48,0.00,,,0.00,WUHU216HW,2013-04-15 20:37:00,
2013-04-15 14:42:00,34.2,15.9,29.94,North,0,6.9,8.5,47,0.00,,,0.00,WUHU216HW,2013-04-15 20:42:00,
2013-04-15 14:47:00,34.4,15.1,29.94,NNW,338,7.6,9.2,45,0.00,,,0.00,WUHU216HW,2013-04-15 20:47:00,
2013-04-15 14:52:00,34.7,15.9,29.94,NW,315,7.4,10.5,46,0.00,,,0.00,WUHU216HW,2013-04-15 20:52:00,
2013-04-15 14:57:00,34.6,16.3,29.95,North,0,10.5,10.5,47,0.00,,,0.00,WUHU216HW,2013-04-15 20:57:00,
2013-04-15 15:02:00,34.6,16.3,29.95,North,0,6.9,10.5,47,0.00,,,0.00,WUHU216HW,2013-04-15 21:02:00,
2013-04-15 15:07:00,34.4,16.7,29.95,NE,45,9.8,10.5,48,0.00,,,0.00,WUHU216HW,2013-04-15 21:07:00,
2013-04-15 15:12:00,33.8,17.1,29.95,North,0,8.7,9.8,50,0.00,,,0.00,WUHU216HW,2013-04-15 21:12:00,
2013-04-15 15:17:00,33.8,17.6,29.95,NNE,23,4.9,10.3,51,0.00,,,0.00,WUHU216HW,2013-04-15 21:17:00,
2013-04-15 15:22:00,34.6,17.3,29.95,North,0,4.0,10.3,49,0.00,,,0.00,WUHU216HW,2013-04-15 21:22:00,
2013-04-15 15:27:00,35.1,17.4,29.95,North,0,6.7,7.4,48,0.00,,,0.00,WUHU216HW,2013-04-15 21:27:00,
2013-04-15 15:32:00,35.6,16.8,29.95,North,0,8.1,8.1,46,0.00,,,0.00,WUHU216HW,2013-04-15 21:32:00,
2013-04-15 15:37:00,34.9,15.6,29.95,North,0,4.5,9.8,45,0.00,,,0.00,WUHU216HW,2013-04-15 21:37:00,
2013-04-15 15:42:00,34.7,15.9,29.95,NNW,338,6.3,9.8,46,0.00,,,0.00,WUHU216HW,2013-04-15 21:42:00,
2013-04-15 15:47:00,34.6,15.8,29.95,North,0,5.6,13.4,46,0.00,,,0.00,WUHU216HW,2013-04-15 21:47:00,
2013-04-15 15:52:00,34.2,15.9,29.95,North,0,6.3,13.4,47,0.00,,,0.00,WUHU216HW,2013-04-15 21:52:00,
2013-04-15 15:57:00,34.7,16.5,29.95,NW,315,7.4,7.4,47,0.00,,,0.00,WUHU216HW,2013-04-15 21:57:00,
2013-04-15 16:02:00,35.1,15.8,29.94,North,0,4.5,7.4,45,0.00,,,0.00,WUHU216HW,2013-04-15 22:02:00,
2013-04-15 16:07:00,36.7,16.7,29.94,North,0,13.0,13.0,44,0.00,,,0.00,WUHU216HW,2013-04-15 22:07:00,
2013-04-15 16:12:00,36.0,16.1,29.95,NE,45,10.5,13.0,44,0.00,,,0.00,WUHU216HW,2013-04-15 22:12:00,
2013-04-15 16:17:00,35.5,15.6,29.95,NNW,338,3.6,10.5,44,0.00,,,0.00,WUHU216HW,2013-04-15 22:17:00,
2013-04-15 16:22:00,35.3,15.9,29.95,NNW,338,8.9,8.9,45,0.00,,,0.00,WUHU216HW,2013-04-15 22:22:00,
2013-04-15 16:27:00,35.3,17.5,29.95,NW,315,9.8,9.8,48,0.00,,,0.00,WUHU216HW,2013-04-15 22:27:00,
2013-04-15 16:32:00,34.9,17.2,29.95,NNW,338,7.6,10.3,48,0.00,,,0.00,WUHU216HW,2013-04-15 22:32:00,
2013-04-15 16:37:00,35.3,16.5,29.95,NNW,338,5.6,11.0,46,0.00,,,0.00,WUHU216HW,2013-04-15 22:37:00,
2013-04-15 16:42:00,35.8,17.0,29.95,NNW,338,8.1,11.0,46,0.00,,,0.00,WUHU216HW,2013-04-15 22:42:00,
2013-04-15 16:47:00,35.5,17.6,29.95,NNW,338,6.3,8.5,48,0.00,,,0.00,WUHU216HW,2013-04-15 22:47:00,
2013-04-15 16:52:00,35.8,16.5,29.94,North,0,10.5,10.5,45,0.00,,,0.00,WUHU216HW,2013-04-15 22:52:00,
2013-04-15 16:57:00,36.0,16.1,29.95,NNE,23,5.1,10.5,44,0.00,,,0.00,WUHU216HW,2013-04-15 22:57:00,
2013-04-15 17:02:00,36.2,15.8,29.94,NNW,338,5.8,6.9,43,0.00,,,0.00,WUHU216HW,2013-04-15 23:02:00,
2013-04-15 17:07:00,36.5,14.5,29.94,WNW,293,12.5,12.5,40,0.00,,,0.00,WUHU216HW,2013-04-15 23:07:00,
2013-04-15 17:12:00,36.0,15.6,29.95,North,0,7.2,14.5,43,0.00,,,0.00,WUHU216HW,2013-04-15 23:12:00,
2013-04-15 17:17:00,34.9,15.1,29.95,NNE,23,10.3,14.5,44,0.00,,,0.00,WUHU216HW,2013-04-15 23:17:00,
2013-04-15 17:22:00,34.6,15.8,29.95,North,0,5.8,11.2,46,0.00,,,0.00,WUHU216HW,2013-04-15 23:22:00,
2013-04-15 17:27:00,34.7,17.0,29.95,NW,315,5.6,10.1,48,0.00,,,0.00,WUHU216HW,2013-04-15 23:27:00,
2013-04-15 17:32:00,34.9,17.6,29.95,North,0,8.7,9.4,49,0.00,,,0.00,WUHU216HW,2013-04-15 23:32:00,
2013-04-15 17:37:00,34.6,17.8,29.95,NNE,23,6.9,11.0,50,0.00,,,0.00,WUHU216HW,2013-04-15 23:37:00,
2013-04-15 17:42:00,34.6,17.8,29.95,NNW,338,10.3,11.0,50,0.00,,,0.00,WUHU216HW,2013-04-15 23:42:00,
2013-04-15 17:47:00,34.2,16.9,29.96,NNE,23,6.7,11.0,49,0.00,,,0.00,WUHU216HW,2013-04-15 23:47:00,
2013-04-15 17:52:00,34.4,16.7,29.95,NE,45,1.8,11.0,48,0.00,,,0.00,WUHU216HW,2013-04-15 23:52:00,
2013-04-15 17:57:00,34.6,15.3,29.96,NW,315,4.7,6.0,45,0.00,,,0.00,WUHU216HW,2013-04-15 23:57:00,
2013-04-15 18:02:00,35.1,14.2,29.96,NW,315,7.2,8.1,42,0.00,,,0.00,WUHU216HW,2013-04-16 00:02:00,
2013-04-15 18:07:00,35.6,14.8,29.96,NNW,338,13.4,13.4,42,0.00,,,0.00,WUHU216HW,2013-04-16 00:07:00,
2013-04-15 18:12:00,35.6,15.2,29.96,NNW,338,3.4,13.4,43,0.00,,,0.00,WUHU216HW,2013-04-16 00:12:00,
2013-04-15 18:17:00,34.9,16.7,29.97,North,0,4.3,14.3,47,0.00,,,0.00,WUHU216HW,2013-04-16 00:17:00,
2013-04-15 18:22:00,34.4,15.6,29.97,ENE,68,4.7,14.3,46,0.00,,,0.00,WUHU216HW,2013-04-16 00:22:00,
2013-04-15 18:28:00,34.0,19.0,29.97,North,0,8.5,11.6,54,0.00,,,0.00,WUHU216HW,2013-04-16 00:28:00,
2013-04-15 18:32:00,33.5,16.7,29.97,North,0,13.4,13.4,50,0.00,,,0.00,WUHU216HW,2013-04-16 00:32:00,
2013-04-15 18:38:00,32.8,18.3,29.98,NNW,338,8.3,13.4,55,0.00,,,0.00,WUHU216HW,2013-04-16 00:38:00,
2013-04-15 18:42:00,32.4,20.2,29.98,North,0,11.0,11.4,60,0.00,,,0.00,WUHU216HW,2013-04-16 00:42:00,
2013-04-15 18:48:00,32.4,20.2,29.98,North,0,11.0,11.0,60,0.00,,,0.00,WUHU216HW,2013-04-16 00:48:00,
2013-04-15 18:53:00,32.4,20.2,29.98,North,0,11.0,11.0,60,0.00,,,0.00,WUHU216HW,2013-04-16 00:53:00,
2013-04-15 18:58:00,32.2,18.3,29.98,NNE,23,4.7,11.0,56,0.00,,,0.00,WUHU216HW,2013-04-16 00:58:00,
2013-04-15 19:03:00,32.8,16.6,29.98,NNW,338,9.2,11.9,51,0.00,,,0.00,WUHU216HW,2013-04-16 01:03:00,
2013-04-15 19:08:00,33.3,16.7,29.98,NW,315,11.6,11.9,50,0.00,,,0.00,WUHU216HW,2013-04-16 01:08:00,
2013-04-15 19:13:00,33.1,15.5,29.98,NW,315,11.6,11.6,48,0.00,,,0.00,WUHU216HW,2013-04-16 01:13:00,
2013-04-15 19:18:00,32.8,14.6,29.98,NW,315,11.4,12.8,47,0.00,,,0.00,WUHU216HW,2013-04-16 01:18:00,
2013-04-15 19:23:00,32.4,14.3,29.98,NNW,338,11.4,13.0,47,0.00,,,0.00,WUHU216HW,2013-04-16 01:23:00,
2013-04-15 19:28:00,32.4,14.3,29.98,NNW,338,7.2,13.0,47,0.00,,,0.00,WUHU216HW,2013-04-16 01:28:00,
2013-04-15 19:33:00,32.2,14.1,29.98,NW,315,14.5,14.5,47,0.00,,,0.00,WUHU216HW,2013-04-16 01:33:00,
2013-04-15 19:38:00,32.0,14.5,29.98,NW,315,13.2,16.1,48,0.00,,,0.00,WUHU216HW,2013-04-16 01:38:00,
2013-04-15 19:43:00,31.9,14.3,29.98,NNW,338,8.9,16.1,48,0.00,,,0.00,WUHU216HW,2013-04-16 01:43:00,
2013-04-15 19:48:00,31.7,14.1,29.99,NW,315,8.9,12.1,48,0.00,,,0.00,WUHU216HW,2013-04-16 01:48:00,
2013-04-15 19:52:00,31.5,13.5,29.99,North,0,6.7,13.4,47,0.00,,,0.00,WUHU216HW,2013-04-16 01:52:00,
2013-04-15 19:57:00,31.3,13.3,30.00,North,0,5.4,13.4,47,0.00,,,0.00,WUHU216HW,2013-04-16 01:57:00,
2013-04-15 20:02:00,31.1,14.1,30.00,NNE,23,5.6,8.3,49,0.00,,,0.00,WUHU216HW,2013-04-16 02:02:00,
2013-04-15 20:07:00,31.1,13.7,30.00,NNW,338,4.5,7.6,48,0.00,,,0.00,WUHU216HW,2013-04-16 02:07:00,
2013-04-15 20:13:00,30.8,13.3,30.00,North,0,7.4,8.5,48,0.00,,,0.00,WUHU216HW,2013-04-16 02:13:00,
2013-04-15 20:18:00,30.6,14.2,30.01,NW,315,6.0,8.5,50,0.00,,,0.00,WUHU216HW,2013-04-16 02:18:00,
2013-04-15 20:23:00,30.4,14.1,30.01,NW,315,6.9,8.5,50,0.00,,,0.00,WUHU216HW,2013-04-16 02:23:00,
2013-04-15 20:28:00,30.1,13.7,30.01,NW,315,6.9,8.5,50,0.00,,,0.00,WUHU216HW,2013-04-16 02:28:00,
2013-04-15 20:33:00,29.9,14.4,30.01,North,0,5.6,10.5,52,0.00,,,0.00,WUHU216HW,2013-04-16 02:33:00,
2013-04-15 20:38:00,29.7,14.2,30.01,North,0,6.3,10.5,52,0.00,,,0.00,WUHU216HW,2013-04-16 02:38:00,
2013-04-15 20:43:00,29.7,14.2,30.02,NNE,23,6.9,6.9,52,0.00,,,0.00,WUHU216HW,2013-04-16 02:43:00,
2013-04-15 20:48:00,29.5,14.0,30.02,North,0,4.3,6.9,52,0.00,,,0.00,WUHU216HW,2013-04-16 02:48:00,
2013-04-15 20:53:00,29.2,14.1,30.02,North,0,2.5,6.0,53,0.00,,,0.00,WUHU216HW,2013-04-16 02:53:00,
2013-04-15 20:58:00,29.2,14.1,30.03,North,0,5.6,6.5,53,0.00,,,0.00,WUHU216HW,2013-04-16 02:58:00,
2013-04-15 21:03:00,29.0,14.8,30.03,North,0,5.4,8.1,55,0.00,,,0.00,WUHU216HW,2013-04-16 03:03:00,
2013-04-15 21:08:00,28.8,14.7,30.03,NNW,338,2.2,8.1,55,0.00,,,0.00,WUHU216HW,2013-04-16 03:08:00,
2013-04-15 21:13:00,28.6,14.5,30.03,North,0,4.9,4.9,55,0.00,,,0.00,WUHU216HW,2013-04-16 03:13:00,
2013-04-15 21:18:00,28.4,14.3,30.04,NNE,23,4.5,4.9,55,0.00,,,0.00,WUHU216HW,2013-04-16 03:18:00,
2013-04-15 21:23:00,28.4,14.3,30.04,NNW,338,3.6,6.7,55,0.00,,,0.00,WUHU216HW,2013-04-16 03:23:00,
2013-04-15 21:28:00,28.4,14.3,30.04,North,0,3.1,6.7,55,0.00,,,0.00,WUHU216HW,2013-04-16 03:28:00,
2013-04-15 21:33:00,28.4,14.3,30.04,North,0,3.6,5.8,55,0.00,,,0.00,WUHU216HW,2013-04-16 03:33:00,
2013-04-15 21:38:00,28.4,13.9,30.04,NE,45,2.9,7.4,54,0.00,,,0.00,WUHU216HW,2013-04-16 03:38:00,
2013-04-15 21:43:00,28.4,13.5,30.05,NNE,23,4.7,7.4,53,0.00,,,0.00,WUHU216HW,2013-04-16 03:43:00,
2013-04-15 21:48:00,28.4,13.5,30.05,NNW,338,4.5,7.2,53,0.00,,,0.00,WUHU216HW,2013-04-16 03:48:00,
2013-04-15 21:53:00,28.6,13.2,30.05,NNE,23,6.0,7.6,52,0.00,,,0.00,WUHU216HW,2013-04-16 03:53:00,
2013-04-15 21:58:00,28.6,13.2,30.05,North,0,4.0,7.6,52,0.00,,,0.00,WUHU216HW,2013-04-16 03:58:00,
2013-04-15 22:00:00,28.6,13.2,30.05,NW,315,4.5,7.6,52,0.00,,,0.00,WUHU216HW,2013-04-16 04:00:00,
2013-04-15 22:05:00,28.4,13.1,30.06,NNW,338,1.1,6.9,52,0.00,,,0.00,WUHU216HW,2013-04-16 04:05:00,
2013-04-15 22:10:00,28.4,13.1,30.06,NNW,338,2.9,5.4,52,0.00,,,0.00,WUHU216HW,2013-04-16 04:10:00,
2013-04-15 22:15:00,28.4,13.9,30.06,NNW,338,3.6,4.0,54,0.00,,,0.00,WUHU216HW,2013-04-16 04:15:00,
2013-04-15 22:20:00,28.3,14.1,30.06,NW,315,4.9,6.3,55,0.00,,,0.00,WUHU216HW,2013-04-16 04:20:00,
2013-04-15 22:25:00,27.9,14.2,30.06,NNW,338,2.9,6.3,56,0.00,,,0.00,WUHU216HW,2013-04-16 04:25:00,
2013-04-15 22:30:00,27.9,13.8,30.06,NNW,338,3.4,5.8,55,0.00,,,0.00,WUHU216HW,2013-04-16 04:30:00,
2013-04-15 22:35:00,27.7,14.1,30.06,North,0,3.6,4.3,56,0.00,,,0.00,WUHU216HW,2013-04-16 04:35:00,
2013-04-15 22:40:00,27.7,14.1,30.07,North,0,6.0,6.0,56,0.00,,,0.00,WUHU216HW,2013-04-16 04:40:00,
2013-04-15 22:45:00,27.7,14.4,30.07,NNW,338,2.5,6.0,57,0.00,,,0.00,WUHU216HW,2013-04-16 04:45:00,
2013-04-15 22:50:00,27.7,13.6,30.07,NNW,338,4.0,4.9,55,0.00,,,0.00,WUHU216HW,2013-04-16 04:50:00,
2013-04-15 22:55:00,27.7,13.6,30.06,NNW,338,2.7,5.4,55,0.00,,,0.00,WUHU216HW,2013-04-16 04:55:00,
2013-04-15 23:00:00,27.7,14.1,30.06,NNW,338,2.5,6.0,56,0.00,,,0.00,WUHU216HW,2013-04-16 05:00:00,
2013-04-15 23:05:00,27.5,13.9,30.06,NNW,338,1.8,6.0,56,0.00,,,0.00,WUHU216HW,2013-04-16 05:05:00,
2013-04-15 23:10:00,27.5,14.2,30.06,NNW,338,2.9,3.8,57,0.00,,,0.00,WUHU216HW,2013-04-16 05:10:00,
2013-04-15 23:15:00,27.4,13.7,30.06,NW,315,4.7,6.9,56,0.00,,,0.00,WUHU216HW,2013-04-16 05:15:00,
2013-04-15 23:20:00,27.4,14.0,30.06,NNW,338,4.3,6.9,57,0.00,,,0.00,WUHU216HW,2013-04-16 05:20:00,
2013-04-15 23:25:00,27.4,13.2,30.06,North,0,7.2,7.2,55,0.00,,,0.00,WUHU216HW,2013-04-16 05:25:00,
2013-04-15 23:30:00,27.4,13.7,30.06,NW,315,2.7,7.2,56,0.00,,,0.00,WUHU216HW,2013-04-16 05:30:00,
2013-04-15 23:35:00,27.0,14.1,30.06,NW,315,6.0,6.0,58,0.00,,,0.00,WUHU216HW,2013-04-16 05:35:00,
2013-04-15 23:40:00,26.6,13.8,30.06,NW,315,7.6,7.6,58,0.00,,,0.00,WUHU216HW,2013-04-16 05:40:00,
2013-04-15 23:45:00,26.5,13.6,30.06,North,0,1.6,7.6,58,0.00,,,0.00,WUHU216HW,2013-04-16 05:45:00,
2013-04-15 23:50:00,26.3,13.9,30.06,NW,315,4.0,4.9,59,0.00,,,0.00,WUHU216HW,2013-04-16 05:50:00,
2013-04-15 23:55:00,26.1,13.7,30.06,North,0,1.6,4.9,59,0.00,,,0.00,WUHU216HW,2013-04-16 05:55:00,